Sisseton, SD

7:15 AM CDT on May 25, 2017 (GMT -0500)
Sisseton

Weather History for K8D3 - May, 2014

Change the Weather History Date:

Tuesday, May 13, 2014

  Actual Average Record
Temperature  
Mean Temperature 44 °F 56 °F  
Max Temperature 53 °F 69 °F 92 °F (1932)
Min Temperature 34 °F 44 °F 26 °F (1953)
Degree Days  
Heating Degree Days 21 9  
Month to date heating degree days 213 144  
Since 1 July heating degree days 8957 8103  
Cooling Degree Days 0 1  
Month to date cooling degree days 0 4  
Year to date cooling degree days 0 5  
Moisture  
Dew Point 35 °F    
Average Humidity 70    
Maximum Humidity 89    
Minimum Humidity 50    
Precipitation  
Precipitation 0.00 in 0.09 in 2.25 in (1942)
Month to date precipitation 1.48 1.12  
Year to date precipitation 6.12 5.38  
Sea Level Pressure  
Sea Level Pressure 30.15 in    
Wind  
Wind Speed 18 mph (NNW)    
Max Wind Speed 33 mph    
Max Gust Speed 39 mph    
T = Trace of Precipitation, MM = Missing Value Source: NWS Daily Summary

Daily Weather History Graph

Daily Weather History Graph

Search for Another Location

Airport or City:

Trip Planner

Search our weather history database for the weather conditions in past years. The results will help you decide how hot, cold, wet, or windy it might be!

Date:

Astronomy

May. 13, 2014 Rise Set
Actual Time 5:59 AM CDT 8:50 PM CDT
Civil Twilight 5:24 AM CDT 9:24 PM CDT
Nautical Twilight 4:40 AM CDT 10:08 PM CDT
Astronomical Twilight 3:49 AM CDT 11:01 PM CDT
Moon 7:49 PM CDT (5/13) 5:21 AM CDT (5/13)
Length of Visible Light 16h 00m
Length of Day
14h 50m
Waxing Gibbous, 99% of the Moon is Illuminated
May 13
Waxing Gibbous
May 14
Full
May 21
Last Quarter
May 28
New
Jun 5
First Quarter

Hourly Weather History & Observations

Time (CDT) Temp. Windchill Dew Point Humidity Pressure Visibility Wind Dir Wind Speed Gust Speed Precip Events Conditions
1:56 AM 42.1 °F 33.3 °F 37.9 °F 85% 30.01 in - NW 19.6 mph 26.5 mph N/A   Unknown
2:56 AM 41.0 °F 31.4 °F 36.0 °F 82% 30.04 in - NW 21.9 mph 27.6 mph N/A   Unknown
3:56 AM 39.9 °F 30.0 °F 35.1 °F 83% 30.05 in - NNW 21.9 mph - N/A   Unknown
4:56 AM 39.9 °F 30.0 °F 35.1 °F 83% 30.06 in - NNW 21.9 mph 29.9 mph N/A   Unknown
5:56 AM 39.0 °F 29.3 °F 35.1 °F 86% 30.07 in - NNW 19.6 mph - N/A   Unknown
6:56 AM 39.9 °F 30.8 °F 35.1 °F 83% 30.09 in - NNW 18.4 mph - N/A   Unknown
8:56 AM 45.0 °F 35.6 °F 37.0 °F 74% 30.12 in - North 27.6 mph 39.1 mph N/A   Unknown
10:56 AM 45.0 °F 35.2 °F 35.1 °F 68% 30.14 in - NNW 29.9 mph 35.7 mph N/A   Unknown
12:56 PM 48.9 °F - 36.0 °F 61% 30.17 in - North 24.2 mph 33.4 mph N/A   Unknown
1:56 PM 51.1 °F - 36.0 °F 56% 30.18 in - North 20.7 mph 28.8 mph N/A   Unknown
2:56 PM 51.1 °F - 35.1 °F 54% 30.20 in - North 20.7 mph - N/A   Unknown
3:56 PM 51.1 °F - 33.1 °F 50% 30.20 in - NNW 24.2 mph - N/A   Unknown
4:56 PM 51.1 °F - 33.1 °F 50% 30.20 in - North 19.6 mph 27.6 mph N/A   Unknown
5:56 PM 51.1 °F - 33.1 °F 50% 30.21 in - NNW 18.4 mph - N/A   Unknown
6:56 PM 52.0 °F - 33.1 °F 49% 30.19 in - NNW 12.7 mph - N/A   Unknown
7:56 PM 50.0 °F - 34.0 °F 54% 30.20 in - NNW 10.4 mph - N/A   Unknown
8:56 PM 46.0 °F 43.9 °F 34.0 °F 63% 30.19 in - North 4.6 mph - N/A   Unknown
9:56 PM 42.1 °F 38.4 °F 34.0 °F 73% 30.22 in - West 5.8 mph - N/A   Unknown
10:56 PM 37.0 °F 33.3 °F 33.1 °F 86% 30.23 in - WSW 4.6 mph - N/A   Unknown
11:56 PM 36.0 °F 33.3 °F 32.0 °F 86% 30.23 in - West 3.5 mph - N/A   Unknown